DECAYED

STARLINK-1031, 44736 (Decayed)

Orbit data source: Space-Track

STARLINK-1031, 44736 was a payload satellite owned by SpaceX/Seattle (US) in LEO that was launched on Mon, 11 Nov 2019 UTC via an FALCON 9 launch vehicle from the Air Force Eastern Test Range (AFETR). Payload-class satellites include a variety of spacecraft equipped with specific instruments for various scientific and technological missions. These include communications satellites like Starlink; space stations such as the ISS; scientific satellites like the Hubble; Earth observation satellites from companies like Planet Labs, Umbra, and HawkEye 360; GPS; miniature CubeSats for education and research; and military/defense satellites.

Not visible in the next 10 days
Identifier
44736, 2019-074Z
Orbit
Decayed
Country
Flag of USUS
Related business
Manufacturer
SpaceX/Seattle
Mission
Decayed Commercial Communications
Bus & Motor
STARLINK, Unknown motor
Mass
260 kg wet, ~248 kg dry
Launch date (UTC)
2019-11-11 (6 years ago)
Launch vehicle
FALCON 9
Launch site
Air Force Eastern Test Range (AFETR)
Object type
Payload
Rocket body
Debris
Shape & HBR
Box + 1 Pan, 10.1 m
Radar Cross Section
13.562 m², Large (>1 m²)

Expand to show TLE details & history
Last TLE update: 2 weeks ago

TLE from 2 weeks ago
0 STARLINK-1031
1 44736U 19074Z   26099.80744145  .10672862  12529-4  31244-3 0  9996
2 44736  53.0202 318.4317 0008319 285.2600  74.7528 16.44652751354689
Epoch: 2026-04-09T19:22Z
TLE epoch observation values (Epoch: 2026-04-09T19:22:42.941Z)
Latitude
-0.00003°
Longitude
-170.2974°
Altitude
152.958 km
Speed
7.817 km/s
True Right ascension
21h 13m 43s
True Declination
0° 00' 00"
Sunlit
Object was in daylight at epoch
Visualization orbit readout
Latitude
Unknown
Longitude
Unknown
Altitude
Unknown
Speed
Unknown
Apparent Right ascension
Unknown
Apparent Declination
Unknown
Sunlit
N/A
Visualization observer readout
Local Sidereal Time
19:41:55
Azimuth
Unknown
Elevation
Unknown
Doppler factor
Unknown
Orbital elements
Apogee altitude
159.181 km
Perigee altitude
148.313 km
Semi-major axis
6,531.884 km
Eccentricity
0.00083
Inclination
53.0202°
RAAN
318.4317°
Arg. of periapsis
285.26°
True anomaly
74.8448°
Mean anomaly
74.7528°
Eccentric anomaly
74.7988°
Mean motion
4.11136 °/min
Orbital period
87.56 mins
BSTAR
0.00031244
Loading maneuver chart data...
Computing Atmospheric mass density...

Documentation

Showing up to 5 results
|